364  
ASUS42 KCAE 080210  
RWRCAE  
REGIONAL WEATHER ROUNDUP  
NATIONAL WEATHER SERVICE COLUMBIA SC  
1000 PM EDT WED JUN 07 2023  
 
NOTE: "FAIR" INDICATES FEW OR NO CLOUDS BELOW 12,000 FEET WITH NO  
SIGNIFICANT WEATHER AND/OR S TO VISIBILITY
.  
 
NOT ALL STATIONS ARE QUALITY CONTROLLED BY THE NATIONAL  
WEATHER SERVICE. USE DATA WITH CAUTION...ESPECIALLY  
DEWPOINT OBSERVATIONS.  
 
SCZ001>059-115-116-135>137-GAZ040-063>065-077-080300-   
..UPSTATE SOUTH CAROLINA
 
 
 
CITY SKY/WX TMP DP RH WIND PRES REMARKS
 
ANDERSON CLOUDY 73 61 65 E6 29.72R  
LIBERTY LGT RAIN 69 64 84 SE5 29.73R  
SPARTANBURG CLOUDY 66 59 77 CALM 29.73R  
CLEMSON LGT RAIN 70 63 78 E3 29.73R  
GREENVILLE LGT RAIN 70 60 70 SE5 29.74R  
GREENWOOD CLOUDY 70 58 65 E3 29.73S  
GREER CLOUDY 69 57 65 E3 29.74R  
ROCK HILL CLOUDY 63 61 93 N3 29.73S  
CHESTER CLOUDY 63 63 100 CALM 29.74R  
LAURENS CLOUDY 68 59 73 NE5 29.73R  
 
   
..CENTRAL SOUTH CAROLINA
 
 
 
CITY SKY/WX TMP DP RH WIND PRES REMARKS
 
COLUMBIA APT PTCLDY 74 56 53 NE7 29.70R  
COLUMBIA OWENS PTCLDY 74 55 51 VRB3 29.71R  
MCENTIRE ANGB PTCLDY 73 57 56 CALM 29.69R  
ORANGEBURG PTCLDY 77 64 64 NE7 29.71R  
SUMTER SHAW PTCLDY 72 55 54 NE12 29.69R  
NEWBERRY LGT RAIN 70 55 60 E6 29.75S  
AIKEN FAIR 73 58 59 N7 29.71R  
BARNWELL FAIR 72 66 83 CALM 29.69R  
MANNING FAIR 70 61 73 NE8 29.71R  
CAMDEN LGT RAIN 68 55 64 NE9 29.73S  
LANCASTER CLOUDY 63 61 94 CALM 29.72S  
WINNSBORO MOCLDY 66 57 72 NE6 29.72F  
 
   
..EASTERN AND COASTAL SOUTH CAROLINA
 
 
 
CITY SKY/WX TMP DP RH WIND PRES REMARKS
 
MYRTLE BEACH CLOUDY 72 70 93 N10 29.70R  
N MYRTLE BCH CLOUDY 70 64 81 NE10 29.70R  
CONWAY FAIR 70 61 73 CALM 29.72R  
MARION HAZE 72 55 56 NE7 29.73R VSB 1/4  
HARTSVILLE CLOUDY 68 57 68 NE8 29.74R  
FLORENCE MOCLDY 72 55 55 N10 29.72R  
DARLINGTON CLOUDY 67 58 72 N9 29.74R  
CHARLESTON APT CLOUDY 71 65 81 SW9 29.70R  
MOUNT PLEASANT DRIZZLE 72 70 94 CALM 29.68S  
WALTERBORO MOCLDY 70 64 83 S9 29.72R  
BEAUFORT CLOUDY 70 67 90 S5 29.72F THUNDER FOG  
HILTON HEAD RAIN 72 70 94 S5 29.74F  
 
   
..EASTERN GEORGIA
 
 
 
CITY SKY/WX TMP DP RH WIND PRES REMARKS
 
AUGUSTA BUSH F PTCLDY 73 65 75 W6 29.66S  
AUGUSTA DANIEL PTCLDY 78 63 59 VRB6 29.69S  
THOMSON PTCLDY 74 66 75 S3 29.70R  
CLAXTON FAIR 71 70 96 CALM 29.72R  
SYLVANIA PTCLDY 76 61 58 W5 29.71R  
STATESBORO MOCLDY 74 60 60 CALM 29.71R  
SAVANNAH TSTM 72 60 66 VRB5G20 29.74  
 
   
..SOUTHERN NORTH CAROLINA
 
 
 
CITY SKY/WX TMP DP RH WIND PRES REMARKS
 
CHARLOTTE CLOUDY 66 61 84 CALM 29.73R  
MONROE CLOUDY 62 61 96 CALM 29.72S  
WADESBORO DRIZZLE 63 62 97 CALM 29.72F  
ROCKINGHAM MIX PCPN 63 61 91 CALM 29.73F  
RUTHERFORDTON CLOUDY 68 54 60 NW6 29.74S  
ASHEVILLE CLOUDY 63 56 78 N8 29.79R  
 

 
 
 
CLICK HERE TO GO TO PREVIOUS BULLETINS.

The Nexlab SC Page
The Nexlab GA Page Main Text Page